PDT,Max TemperatureF,Mean TemperatureF,Min TemperatureF,Max Dew PointF,MeanDew PointF,Min DewpointF,Max Humidity, Mean Humidity, Min Humidity, Max Sea Level PressureIn, Mean Sea Level PressureIn, Min Sea Level PressureIn, Max VisibilityMiles, Mean VisibilityMiles, Min VisibilityMiles, Max Wind SpeedMPH, Mean Wind SpeedMPH, Max Gust SpeedMPH,PrecipitationIn, CloudCover, Events, WindDirDegrees
2012-8-1,64,59,54,55,54,54,100,82,67,30.23,30.21,30.19,10,10,10,28,14,37,0.00,3,,358
2012-8-2,64,58,52,57,54,52,100,86,67,30.22,30.16,30.08,10,10,10,24,13,32,0.00,4,,354
2012-8-3,61,58,54,57,55,54,100,92,80,30.08,29.97,29.85,10,8,0,23,13,31,0.00,5,,347
2012-8-4,64,59,54,55,55,54,100,89,72,29.96,29.86,29.81,10,6,0,15,6,,0.00,4,,274
2012-8-5,66,61,55,59,57,54,100,89,84,30.10,30.02,29.96,10,10,10,13,6,18,0.00,6,,242
2012-8-6,64,60,55,57,56,54,100,90,78,30.18,30.14,30.09,10,7,2,14,6,,0.00,8,,246
2012-8-7,66,62,57,55,54,52,93,82,63,30.15,30.13,30.10,10,10,7,10,4,,0.00,7,,262
2012-8-8,70,64,57,59,56,54,97,82,63,30.21,30.18,30.15,10,10,10,20,9,27,0.00,5,,24
2012-8-9,66,62,57,59,57,55,100,87,73,30.19,30.15,30.12,10,10,10,24,13,35,0.00,3,,355
2012-8-10,66,61,55,57,56,55,100,84,73,30.15,30.09,30.04,10,10,10,30,16,38,0.00,4,,357
2012-8-11,63,58,52,57,54,52,100,92,78,30.03,29.97,29.89,10,5,0,28,15,33,0.00,5,,353
2012-8-12,63,57,50,57,54,50,100,94,78,30.01,29.95,29.92,10,5,0,24,12,33,0.00,7,,349
2012-8-13,63,58,52,55,54,52,100,94,78,30.03,30.00,29.96,10,6,1,30,16,36,0.00,6,,353
2012-8-14,66,57,48,57,53,48,100,91,67,29.99,29.94,29.86,10,6,0,29,14,41,0.00,5,,347
2012-8-15,63,58,52,55,53,50,100,92,78,29.93,29.88,29.85,10,7,0,16,7,,0.00,6,,329
2012-8-16,64,58,52,55,54,52,100,91,67,30.00,29.97,29.91,10,8,0,16,6,,0.00,3,,262
2012-8-17,61,56,50,54,52,50,100,92,78,30.07,30.03,30.00,10,7,1,13,5,,0.00,7,,284
2012-8-18,61,58,54,55,54,52,100,93,78,30.05,30.02,30.00,10,8,2,10,4,,0.00,8,,309
2012-8-19,66,60,54,55,54,52,100,84,67,30.08,30.06,30.04,10,10,10,14,6,17,0.00,5,,9
2012-8-20,66,58,50,59,55,50,100,89,73,30.07,30.03,30.00,10,8,0,21,8,25,0.00,3,,347
2012-8-21,68,62,55,59,58,55,100,88,73,30.06,30.04,30.02,10,10,3,20,9,27,0.00,3,,334
2012-8-22,70,60,50,57,54,48,100,83,55,30.08,30.05,30.04,10,9,0,28,12,35,0.00,1,,354
2012-8-23,68,59,50,55,51,43,100,78,42,30.12,30.10,30.08,10,9,0,31,13,37,0.00,1,,359
2012-8-24,64,59,54,52,50,48,83,65,56,30.12,30.02,29.95,10,10,10,30,22,41,0.00,0,,336
2012-8-25,64,58,52,55,54,52,100,81,72,29.93,29.90,29.87,10,8,2,12,8,17,0.00,5,,314
2012-8-26,68,62,55,57,54,52,93,79,55,29.96,29.90,29.85,10,9,2,16,9,25,0.00,7,Rain,195
2012-8-27,66,61,55,57,55,39,100,79,40,30.09,30.07,30.04,10,10,8,15,7,,0.00,4,,259
2012-8-28,70,59,48,55,54,48,100,81,57,30.13,30.11,30.08,10,9,3,15,7,,0.00,2,,251
2012-8-29,68,61,54,57,56,55,100,78,63,30.16,30.12,30.06,10,10,10,22,11,27,0.00,0,,333
2012-8-30,66,59,51,57,55,52,100,79,63,29.99,29.94,29.90,10,10,1,25,15,33,0.00,0,Fog,352
2012-8-31,64,56,48,55,52,46,100,83,56,30.05,29.98,29.92,10,9,0,21,12,30,0.00,2,,355